Regional Weather Roundup
Issued by NWS

Home | Current Version | Previous Version | Graphics & Text | Print | Product List | Glossary On
Versions: 1 2 3 4 5 6 7 8 9 10 11 12 13 14 15 16 17 18 19 20 21 22 23 24 25 26 27 28 29 30 31 32 33 34 35 36 37 38 39 40 41 42 43 44 45 46 47 48 49 50
000
ASUS45 KCYS 301210
RWRWY

WYOMING REGIONAL WEATHER ROUNDUP
NATIONAL WEATHER SERVICE CHEYENNE WY
600 AM MDT SAT APR 30 2016

NOTE:  "FAIR" INDICATES FEW OR NO CLOUDS BELOW 12,000 FEET
WITH NO SIGNIFICANT WEATHER AND/OR OBSTRUCTIONS TO VISIBILITY.

WYZ001-301300-
YELLOWSTONE NATIONAL PARK

CITY           SKY/WX    TMP DP  RH WIND       PRES   REMARKS
LK YELLOWSTONE   N/A     28  25  88 CALM      30.02R
6HR MIN TEMP:  28; 6HR MAX TEMP:  32; 6HR PCP:  0.01;

W YELLOWSTONE  NOT AVBL

$$
WYZ002>013-054>058-071-098>099-301300-
NORTHERN WYOMING

CITY           SKY/WX    TMP DP  RH WIND       PRES   REMARKS
JACKSON        CLOUDY    34  34 100 N14       29.96S WCI  24
CODY           CLOUDY    37  36  93 NE9       30.04R WCI  31
GREYBULL       CLOUDY    44  35  70 NW9       30.00R
6HR MIN TEMP:  44; 6HR MAX TEMP:  47;

WORLAND        CLOUDY    41  37  86 SW5       30.01R
6HR MIN TEMP:  40; 6HR MAX TEMP:  42;

SHERIDAN       CLOUDY    39  36  89 CALM      30.08R
6HR MIN TEMP:  39; 6HR MAX TEMP:  41;

BUFFALO          N/A    N/A N/A N/A MISG      30.06R
GILLETTE       CLOUDY    37  34  89 NE10      30.04R WCI  30
6HR MIN TEMP:  37; 6HR MAX TEMP:  39; 6HR PCP: TRACE;

HULETT         DRIZZLE   37  36  93 NE6       30.07R WCI  33
NEWCASTLE      CLOUDY    39  28  65 NE8       30.00S WCI  34

$$
WYZ014>020-022>026-101>103-301300-
CENTRAL WYOMING

CITY           SKY/WX    TMP DP  RH WIND       PRES   REMARKS
BIG PINEY      FLURRIES  31  30  96 S6        29.97R WCI  25
6HR MIN TEMP:  31; 6HR MAX TEMP:  34; 6HR PCP:  0.01;

PINEDALE       FAIR      30  30 100 NW3       29.97R
DUBOIS         LGT SNOW  28  28 100 CALM      30.00R
LANDER         LGT SNOW  33  32  96 NW7       30.00R FOG     WCI  27
6HR MIN TEMP:  33; 6HR MAX TEMP:  33; 6HR PCP:  0.11;

RIVERTON       LGT RAIN  35  33  92 NW9       30.01S WCI  28
6HR MIN TEMP:  34; 6HR MAX TEMP:  36; 6HR PCP:  0.04;

CASPER         LGT SNOW  32  30  92 NE12      29.99R FOG     WCI  23
6HR MIN TEMP:  32; 6HR MAX TEMP:  35; 6HR PCP:  0.17;

DOUGLAS        LGT SNOW  32  32 100 NW6       29.99S FOG     WCI  26
6HR MIN TEMP:  32; 6HR MAX TEMP:  33; 6HR PCP:  0.10;


$$
WYZ021-027>030-104>119-301300-
SOUTHERN WYOMING

CITY           SKY/WX    TMP DP  RH WIND       PRES   REMARKS
EVANSTON       FAIR      31  26  82 E8        29.93S WCI  23
6HR MIN TEMP:  31; 6HR MAX TEMP:  34;

KEMMERER       LGT SNOW  32  30  93 E6        29.97R WCI  26
FORT BRIDGER   FLURRIES  32  32 100 E8        29.98S WCI  25
ROCK SPRINGS   LGT SNOW  31  28  89 NE10      29.96S FOG     WCI  22
6HR MIN TEMP:  31; 6HR MAX TEMP:  33; 6HR PCP: TRACE;

DIXON          CLOUDY    33  28  82 NE12      29.90S WCI  24
RAWLINS        CLOUDY    29  27  92 NE5       29.94R FOG     WCI  24
6HR MIN TEMP:  29; 6HR MAX TEMP:  30;

SARATOGA       LGT SNOW  30  30 100 NW6       29.92R WCI  24
LARAMIE        LGT SNOW  24  23  96 N10       29.88S FOG     WCI  14
6HR MIN TEMP:  24; 6HR MAX TEMP:  28; 6HR PCP:  0.02;

CHEYENNE       LGT SNOW  28  26  92 N8        29.88R FOG     WCI  20
6HR MIN TEMP:  28; 6HR MAX TEMP:  30; 6HR PCP:  0.04;

TORRINGTON     LGT SNOW  33  32  96 N13       29.93R FOG     WCI  24
6HR MIN TEMP:  32; 6HR MAX TEMP:  33; 6HR PCP:  0.08;

PINE BLUFFS    LGT SNOW  30  30 100 N13       29.89R WCI  20

$$



USA.gov is the U.S. government's official web portal to all federal, state and local government web resources and services.